Chester, MD

2:26 PM EDT on July 25, 2016 (GMT -0400)
Stevensville

Weather History for KW29 - January, 2013

Change the Weather History Date:

Monday, January 21, 2013

  Actual Average (KESN) Record (KESN)
Temperature  
Mean Temperature 37 °F -  
Max Temperature 42 °F 42 °F 66 °F (1951)
Min Temperature 32 °F 25 °F 9 °F (1970)
Degree Days  
Heating Degree Days 28    
Moisture  
Dew Point 21 °F    
Average Humidity 55    
Maximum Humidity 93    
Minimum Humidity 41    
Precipitation  
Precipitation 0.00 in - - ()
Sea Level Pressure  
Sea Level Pressure 29.99 in    
Wind  
Wind Speed 8 mph (ENE)    
Max Wind Speed 18 mph    
Max Gust Speed 28 mph    
Visibility 10 miles    
Events      
Averages and records for this station are not official NWS values.
T = Trace of Precipitation, MM = Missing Value Source: NWS Daily Summary

Daily Weather History Graph

Daily Weather History Graph

Search for Another Location

Airport or City:

Trip Planner

Search our weather history database for the weather conditions in past years. The results will help you decide how hot, cold, wet, or windy it might be!

Date:

Astronomy

Jan. 21, 2013 Rise Set
Actual Time 7:19 AM EST 5:14 PM EST
Civil Twilight 6:50 AM EST 5:43 PM EST
Nautical Twilight 6:18 AM EST 6:15 PM EST
Astronomical Twilight 5:46 AM EST 6:47 PM EST
Moon 12:52 PM EST (1/21) 2:45 AM EST (1/21)
Length of Visible Light 10h 52m
Length of Day
9h 54m
Waxing Gibbous, 75% of the Moon is Illuminated
Jan 21
Waxing Gibbous
Jan 26
Full
Feb 3
Last Quarter
Feb 10
New
Feb 17
First Quarter

Hourly Weather History & Observations

Time (EST) Temp. Windchill Dew Point Humidity Pressure Visibility Wind Dir Wind Speed Gust Speed Precip Events Conditions
12:14 AM 37.4 °F 31.4 °F 15.8 °F 41% 30.10 in 10.0 mi NNW 8.1 mph - N/A   Clear
12:35 AM 35.6 °F 30.7 °F 19.4 °F 52% 30.10 in 10.0 mi North 5.8 mph - N/A   Clear
12:57 AM 35.6 °F 29.2 °F 17.6 °F 48% 30.10 in 10.0 mi North 8.1 mph - N/A   Clear
1:18 AM 35.6 °F 27.5 °F 17.6 °F 48% 30.09 in 10.0 mi North 11.5 mph - N/A   Clear
2:01 AM 33.8 °F 25.8 °F 17.6 °F 52% 30.10 in 10.0 mi North 10.4 mph 16.1 mph N/A   Clear
2:22 AM 33.8 °F 26.4 °F 17.6 °F 52% 30.10 in 10.0 mi North 9.2 mph - N/A   Clear
2:44 AM 33.8 °F 26.4 °F 19.4 °F 56% 30.10 in 10.0 mi North 9.2 mph - N/A   Clear
3:05 AM 32.0 °F 23.0 °F 19.4 °F 60% 30.10 in 10.0 mi North 11.5 mph 17.3 mph N/A   Clear
3:26 AM 32.0 °F 23.6 °F 17.6 °F 55% 30.11 in 10.0 mi North 10.4 mph - N/A   Clear
4:09 AM 32.0 °F 27.5 °F 17.6 °F 55% 30.11 in 10.0 mi NNE 4.6 mph - N/A   Clear
4:30 AM 32.0 °F - 17.6 °F 55% 30.11 in 10.0 mi Calm Calm - N/A   Clear
4:52 AM 32.0 °F - 17.6 °F 55% 30.11 in 10.0 mi Calm Calm - N/A   Clear
5:34 AM 32.0 °F 27.5 °F 17.6 °F 55% 30.10 in 10.0 mi NE 4.6 mph - N/A   Clear
5:56 AM 32.0 °F - 15.8 °F 51% 30.11 in 10.0 mi Calm Calm - N/A   Clear
6:17 AM 32.0 °F - 15.8 °F 51% 30.12 in 10.0 mi Calm Calm - N/A   Clear
6:38 AM 32.0 °F - 17.6 °F 55% 30.12 in 10.0 mi Calm Calm - N/A   Clear
7:00 AM 32.0 °F 27.5 °F 17.6 °F 55% 30.12 in 10.0 mi East 4.6 mph - N/A   Clear
7:21 AM 32.0 °F 26.4 °F 17.6 °F 55% 30.12 in 10.0 mi ESE 5.8 mph - N/A   Clear
8:03 AM 32.0 °F 24.8 °F 15.8 °F 51% 30.12 in 10.0 mi East 8.1 mph - N/A   Clear
8:25 AM 32.0 °F 24.8 °F 15.8 °F 51% 30.12 in 10.0 mi ESE 8.1 mph - N/A   Clear
8:46 AM 32.0 °F 25.6 °F 14.0 °F 48% 30.12 in 10.0 mi ESE 6.9 mph - N/A   Clear
9:07 AM 32.0 °F 26.4 °F 14.0 °F 48% 30.12 in 10.0 mi East 5.8 mph - N/A   Clear
9:50 AM 33.8 °F 27.7 °F 14.0 °F 44% 30.12 in 10.0 mi SE 6.9 mph - N/A   Clear
10:11 AM 33.8 °F 26.4 °F 14.0 °F 44% 30.10 in 10.0 mi ESE 9.2 mph - N/A   Clear
10:32 AM 33.8 °F 27.0 °F 14.0 °F 44% 30.10 in 10.0 mi ESE 8.1 mph - N/A   Clear
10:54 AM 35.6 °F 30.7 °F 14.0 °F 41% 30.09 in 10.0 mi East 5.8 mph - N/A   Clear
11:15 AM 35.6 °F 29.9 °F 14.0 °F 41% 30.07 in 10.0 mi SE 6.9 mph - N/A   Clear
11:36 AM 35.6 °F 28.6 °F 15.8 °F 44% 30.05 in 10.0 mi SSE 9.2 mph - N/A   Clear
11:58 AM 35.6 °F 29.2 °F 15.8 °F 44% 30.03 in 10.0 mi South 8.1 mph - N/A   Clear
12:19 PM 35.6 °F 28.6 °F 15.8 °F 44% 30.01 in 10.0 mi SSE 9.2 mph - N/A   Clear
1:01 PM 35.6 °F 28.6 °F 17.6 °F 48% 29.98 in 10.0 mi SSE 9.2 mph - N/A   Clear
1:23 PM 37.4 °F 30.8 °F 19.4 °F 48% 29.96 in 10.0 mi SSE 9.2 mph - N/A   Clear
1:44 PM 39.2 °F 34.2 °F 19.4 °F 45% 29.94 in 10.0 mi South 6.9 mph - N/A   Clear
2:05 PM 41.0 °F 35.8 °F 19.4 °F 42% 29.93 in 10.0 mi SSE 8.1 mph - N/A   Clear
2:27 PM 41.0 °F 35.2 °F 19.4 °F 42% 29.91 in 10.0 mi SSE 9.2 mph - N/A   Clear
2:48 PM 41.0 °F 37.1 °F 21.2 °F 45% 29.88 in 10.0 mi SE 5.8 mph - N/A   Scattered Clouds
3:09 PM 41.0 °F 37.1 °F 21.2 °F 45% 29.87 in 10.0 mi SSE 5.8 mph - N/A   Clear
3:31 PM 41.0 °F 39.0 °F 21.2 °F 45% 29.86 in 10.0 mi SSE 3.5 mph - N/A   Clear
3:52 PM 42.8 °F 38.6 °F 24.8 °F 49% 29.84 in 10.0 mi SSE 6.9 mph - N/A   Clear
4:13 PM 42.8 °F 38.6 °F 28.4 °F 57% 29.84 in 10.0 mi South 6.9 mph - N/A   Clear
4:34 PM 42.8 °F 40.1 °F 30.2 °F 61% 29.83 in 10.0 mi South 4.6 mph - N/A   Clear
4:56 PM 42.8 °F 40.1 °F 32.0 °F 66% 29.82 in 10.0 mi SE 4.6 mph - N/A   Clear
5:17 PM 41.0 °F 39.0 °F 32.0 °F 70% 29.81 in 10.0 mi SE 3.5 mph - N/A   Clear
5:38 PM 41.0 °F - 32.0 °F 70% 29.81 in 10.0 mi Calm Calm - N/A   Scattered Clouds
5:59 PM 41.0 °F - 32.0 °F 70% 29.81 in 10.0 mi Calm Calm - N/A   Clear
6:21 PM 41.0 °F 36.4 °F 32.0 °F 70% 29.82 in 10.0 mi NNW 6.9 mph - N/A   Scattered Clouds
6:42 PM 37.4 °F 27.5 °F 30.2 °F 75% 29.84 in 10.0 mi North 18.4 mph 27.6 mph N/A   Mostly Cloudy
7:03 PM 37.4 °F 28.2 °F 24.8 °F 60% 29.86 in 10.0 mi North 16.1 mph 23.0 mph N/A   Overcast
7:25 PM 33.8 °F 24.3 °F 30.2 °F 87% 29.87 in 7.0 mi North 13.8 mph 24.2 mph N/A   Mostly Cloudy
7:46 PM 33.8 °F 25.8 °F 32.0 °F 93% 29.87 in 10.0 mi North 10.4 mph - N/A   Mostly Cloudy
8:07 PM 33.8 °F 25.8 °F 32.0 °F 93% 29.88 in 10.0 mi North 10.4 mph - N/A   Mostly Cloudy
8:28 PM 33.8 °F 23.9 °F 32.0 °F 93% 29.88 in 10.0 mi North 15.0 mph 20.7 mph N/A   Scattered Clouds
8:50 PM 35.6 °F 25.9 °F 26.6 °F 70% 29.89 in 10.0 mi NNW 16.1 mph 25.3 mph N/A   Scattered Clouds
9:11 PM 33.8 °F 23.2 °F 23.0 °F 65% 29.90 in 10.0 mi NNW 17.3 mph - N/A   Clear
9:32 PM 33.8 °F 24.3 °F 21.2 °F 60% 29.90 in 10.0 mi NW 13.8 mph 24.2 mph N/A   Clear
9:54 PM 33.8 °F 24.8 °F 19.4 °F 56% 29.91 in 10.0 mi NW 12.7 mph 24.2 mph N/A   Clear
10:15 PM 33.8 °F 25.8 °F 19.4 °F 56% 29.92 in 10.0 mi NW 10.4 mph 23.0 mph N/A   Clear
10:36 PM 32.0 °F 21.6 °F 17.6 °F 55% 29.92 in 10.0 mi NW 15.0 mph 20.7 mph N/A   Clear
10:58 PM 32.0 °F 21.6 °F 17.6 °F 55% 29.92 in 10.0 mi WNW 15.0 mph 20.7 mph N/A   Clear
11:19 PM 32.0 °F 20.5 °F 14.0 °F 48% 29.92 in 10.0 mi NW 18.4 mph - N/A   Clear
11:40 PM 32.0 °F 20.5 °F 15.8 °F 51% 29.92 in 10.0 mi NW 18.4 mph 24.2 mph N/A   Clear